Fosston, MN

3:59 PM CDT on May 23, 2018 (GMT -0500)
Fosston Municipal

Weather History for KFSE - April, 2013

Change the Weather History Date:

Monday, April 22, 2013

  Actual Average Record
Temperature  
Mean Temperature 28 °F -  
Max Temperature 35 °F 56 °F 95 °F (1980)
Min Temperature 19 °F 32 °F 19 °F (2013)
Degree Days  
Heating Degree Days 37    
Moisture  
Dew Point 22 °F    
Average Humidity 79    
Maximum Humidity 100    
Minimum Humidity 60    
Precipitation  
Precipitation 0.00 in - - ()
Sea Level Pressure  
Sea Level Pressure 30.26 in    
Wind  
Wind Speed 6 mph (NW)    
Max Wind Speed 15 mph    
Max Gust Speed 17 mph    
Visibility 10 miles    
Events      
Averages and records for this station are not official NWS values.
T = Trace of Precipitation, MM = Missing Value Source: NWS Daily Summary

Daily Weather History Graph

Daily Weather History Graph

Search for Another Location

Airport or City:

Astronomy

Apr. 22, 2013 Rise Set
Actual Time 6:20 AM CDT 8:23 PM CDT
Civil Twilight 5:47 AM CDT 8:56 PM CDT
Nautical Twilight 5:06 AM CDT 9:37 PM CDT
Astronomical Twilight 4:21 AM CDT 10:23 PM CDT
Moon 5:01 PM CDT (4/22) 4:30 AM CDT (4/22)
Length of Visible Light 15h 08m
Length of Day
14h 02m
Waxing Gibbous, 88% of the Moon is Illuminated
Apr 22
Waxing Gibbous
Apr 25
Full
May 2
Last Quarter
May 9
New
May 17
First Quarter

Hourly Weather History & Observations

Time (CDT) Temp. Windchill Dew Point Humidity Pressure Visibility Wind Dir Wind Speed Gust Speed Precip Events Conditions
12:15 AM 26.6 °F - 23.0 °F 86% 30.13 in 10.0 mi Calm Calm - N/A   Clear
12:35 AM 24.8 °F - 23.0 °F 93% 30.13 in 10.0 mi Calm Calm - N/A   Clear
12:55 AM 24.8 °F - 23.0 °F 93% 30.15 in 10.0 mi Calm Calm - N/A   Clear
1:15 AM 24.8 °F - 23.0 °F 93% 30.15 in 10.0 mi Calm Calm - N/A   Clear
1:35 AM 24.8 °F 16.1 °F 21.2 °F 86% 30.15 in 10.0 mi West 8.1 mph - N/A   Clear
1:55 AM 24.8 °F - 23.0 °F 93% 30.15 in 10.0 mi Calm Calm - N/A   Clear
2:15 AM 24.8 °F - 23.0 °F 93% 30.16 in 10.0 mi Calm Calm - N/A   Clear
2:35 AM 24.8 °F 15.3 °F 21.2 °F 86% 30.17 in 10.0 mi West 9.2 mph - N/A   Clear
2:55 AM 24.8 °F 16.1 °F 23.0 °F 93% 30.17 in 10.0 mi WNW 8.1 mph - N/A   Clear
3:15 AM 23.0 °F 14.7 °F 21.2 °F 93% 30.17 in 10.0 mi West 6.9 mph - N/A   Clear
3:35 AM 23.0 °F 14.7 °F 21.2 °F 93% 30.19 in 10.0 mi West 6.9 mph - N/A   Clear
3:55 AM 23.0 °F 13.1 °F 21.2 °F 93% 30.18 in 10.0 mi WNW 9.2 mph - N/A   Clear
4:15 AM 24.8 °F 16.9 °F 23.0 °F 93% 30.18 in 10.0 mi WNW 6.9 mph - N/A   Clear
4:35 AM 24.8 °F 16.9 °F 23.0 °F 93% 30.19 in 10.0 mi NW 6.9 mph - N/A   Clear
4:55 AM 24.8 °F 16.1 °F 23.0 °F 93% 30.19 in 10.0 mi NW 8.1 mph - N/A   Clear
5:15 AM 24.8 °F 17.9 °F 23.0 °F 93% 30.21 in 10.0 mi WNW 5.8 mph - N/A   Clear
5:35 AM 24.8 °F - 21.2 °F 86% 30.22 in 10.0 mi Calm Calm - N/A   Clear
5:55 AM 23.0 °F - 21.2 °F 93% 30.23 in 10.0 mi Calm Calm - N/A   Clear
6:15 AM 23.0 °F - 21.2 °F 93% 30.24 in 10.0 mi Calm Calm - N/A   Clear
6:35 AM 23.0 °F - 21.2 °F 93% 30.24 in 10.0 mi Calm Calm - N/A   Clear
6:55 AM 23.0 °F - 21.2 °F 93% 30.24 in 10.0 mi Calm Calm - N/A   Clear
7:15 AM 24.8 °F - 23.0 °F 93% 30.25 in 10.0 mi Calm Calm - N/A   Clear
7:35 AM 24.8 °F - 24.8 °F 100% 30.25 in 10.0 mi Calm Calm - N/A   Clear
7:55 AM 24.8 °F - 23.0 °F 93% 30.26 in 10.0 mi Calm Calm - N/A   Clear
8:15 AM 26.6 °F - 23.0 °F 86% 30.27 in 10.0 mi Calm Calm - N/A   Clear
8:35 AM 26.6 °F - 23.0 °F 86% 30.27 in 10.0 mi Calm Calm - N/A   Clear
8:55 AM 26.6 °F 18.2 °F 23.0 °F 86% 30.28 in 10.0 mi NNW 8.1 mph - N/A   Clear
9:15 AM 26.6 °F 22.6 °F 23.0 °F 86% 30.28 in 10.0 mi NNW 3.5 mph - N/A   Clear
9:35 AM 28.4 °F 19.7 °F 23.0 °F 80% 30.28 in 10.0 mi North 9.2 mph - N/A   Clear
9:55 AM 28.4 °F 19.1 °F 21.2 °F 74% 30.28 in 10.0 mi NNW 10.4 mph - N/A   Clear
10:15 AM 28.4 °F 20.4 °F 24.8 °F 86% 30.29 in 10.0 mi NNW 8.1 mph - N/A   Clear
10:35 AM 28.4 °F 18.5 °F 21.2 °F 74% 30.29 in 10.0 mi NNW 11.5 mph - N/A   Clear
10:55 AM 28.4 °F 18.0 °F 21.2 °F 74% 30.29 in 10.0 mi NNW 12.7 mph - N/A   Clear
11:15 AM 28.4 °F 19.7 °F 21.2 °F 74% 30.30 in 10.0 mi NW 9.2 mph - N/A   Clear
11:35 AM 30.2 °F 21.9 °F 21.2 °F 69% 30.30 in 10.0 mi NW 9.2 mph - N/A   Clear
11:55 AM 30.2 °F 20.8 °F 21.2 °F 69% 30.30 in 10.0 mi NNW 11.5 mph - N/A   Clear
12:15 PM 30.2 °F 21.3 °F 21.2 °F 69% 30.31 in 10.0 mi NW 10.4 mph - N/A   Clear
12:35 PM 32.0 °F 23.0 °F 21.2 °F 64% 30.30 in 10.0 mi NNW 11.5 mph - N/A   Clear
12:55 PM 32.0 °F 23.6 °F 21.2 °F 64% 30.30 in 10.0 mi NW 10.4 mph - N/A   Clear
1:15 PM 33.8 °F 27.0 °F 24.8 °F 70% 30.30 in 10.0 mi NNW 8.1 mph - N/A   Clear
1:35 PM 33.8 °F 27.7 °F 24.8 °F 70% 30.30 in 10.0 mi NNW 6.9 mph - N/A   Clear
1:55 PM 33.8 °F 25.8 °F 24.8 °F 70% 30.29 in 10.0 mi NW 10.4 mph - N/A   Clear
2:15 PM 33.8 °F 25.3 °F 24.8 °F 70% 30.28 in 10.0 mi NNW 11.5 mph - N/A   Clear
2:35 PM 33.8 °F 25.8 °F 24.8 °F 70% 30.28 in 10.0 mi NNW 10.4 mph - N/A   Scattered Clouds
2:55 PM 33.8 °F 23.9 °F 24.8 °F 70% 30.29 in 10.0 mi NNW 15.0 mph - N/A   Scattered Clouds
3:15 PM 35.6 °F 27.1 °F 24.8 °F 65% 30.29 in 10.0 mi NNW 12.7 mph - N/A   Scattered Clouds
3:35 PM 35.6 °F 27.5 °F 24.8 °F 65% 30.29 in 10.0 mi NW 11.5 mph - N/A   Clear
3:55 PM 33.8 °F 24.8 °F 23.0 °F 65% 30.29 in 10.0 mi NW 12.7 mph 16.1 mph N/A   Clear
4:15 PM 33.8 °F 25.8 °F 21.2 °F 60% 30.28 in 10.0 mi NW 10.4 mph - N/A   Clear
4:35 PM 33.8 °F 24.3 °F 21.2 °F 60% 30.28 in 10.0 mi NW 13.8 mph - N/A   Clear
4:55 PM 33.8 °F 24.3 °F 21.2 °F 60% 30.28 in 10.0 mi NW 13.8 mph - N/A   Clear
5:15 PM 33.8 °F 23.9 °F 21.2 °F 60% 30.28 in 10.0 mi NW 15.0 mph - N/A   Clear
5:35 PM 32.0 °F 22.5 °F 21.2 °F 64% 30.28 in 10.0 mi NW 12.7 mph - N/A   Clear
5:55 PM 32.0 °F 23.0 °F 21.2 °F 64% 30.28 in 10.0 mi NW 11.5 mph 17.3 mph N/A   Clear
6:15 PM 30.2 °F 19.8 °F 21.2 °F 69% 30.29 in 10.0 mi NW 13.8 mph - N/A   Clear
6:35 PM 30.2 °F 20.2 °F 21.2 °F 69% 30.29 in 10.0 mi NW 12.7 mph - N/A   Clear
6:55 PM 28.4 °F 18.0 °F 21.2 °F 74% 30.28 in 10.0 mi NW 12.7 mph - N/A   Clear
7:15 PM 28.4 °F 18.5 °F 19.4 °F 69% 30.28 in 10.0 mi NW 11.5 mph - N/A   Clear
7:35 PM 28.4 °F 19.7 °F 19.4 °F 69% 30.28 in 10.0 mi NW 9.2 mph - N/A   Clear
7:55 PM 28.4 °F 19.7 °F 19.4 °F 69% 30.28 in 10.0 mi NW 9.2 mph - N/A   Clear
8:15 PM 28.4 °F 18.0 °F 19.4 °F 69% 30.28 in 10.0 mi NW 12.7 mph - N/A   Clear
8:35 PM 26.6 °F 16.2 °F 19.4 °F 74% 30.28 in 10.0 mi NW 11.5 mph - N/A   Clear
8:55 PM 26.6 °F 17.5 °F 19.4 °F 74% 30.29 in 10.0 mi NW 9.2 mph - N/A   Clear
9:15 PM 24.8 °F 15.3 °F 19.4 °F 80% 30.30 in 10.0 mi NW 9.2 mph - N/A   Clear
9:35 PM 24.8 °F 14.6 °F 17.6 °F 74% 30.30 in 10.0 mi NW 10.4 mph - N/A   Clear
9:55 PM 24.8 °F 16.1 °F 17.6 °F 74% 30.30 in 10.0 mi NW 8.1 mph - N/A   Clear
10:15 PM 23.0 °F 13.9 °F 17.6 °F 80% 30.30 in 10.0 mi NW 8.1 mph - N/A   Clear
10:35 PM 23.0 °F 13.1 °F 17.6 °F 80% 30.30 in 10.0 mi NW 9.2 mph - N/A   Clear
10:55 PM 21.2 °F 11.7 °F 17.6 °F 86% 30.30 in 10.0 mi NW 8.1 mph - N/A   Clear
11:15 PM 21.2 °F 12.6 °F 15.8 °F 80% 30.30 in 10.0 mi NW 6.9 mph - N/A   Clear
11:35 PM 21.2 °F 13.6 °F 15.8 °F 80% 30.29 in 10.0 mi NW 5.8 mph - N/A   Clear
11:55 PM 19.4 °F 10.4 °F 15.8 °F 86% 30.28 in 10.0 mi NW 6.9 mph - N/A   Clear